Погода в Старокорсунской

Россия / Краснодарский край     45°03′21″N   39°18′36″E
темп.,
°C
ветер,
м/с
пор.,
м/с
влажн.,
%
обл.,
%
осадки,
мм/ч
давл.,
гПа
погр.,
м
10 мая, пн
пн1000:00+9зюз61068100 0.0 1023259
03:00+7з477631 0.4 1024195
06:00+7з46835 0.2 1024176
09:00+11зсз576163 0.3 10231189
12:00+13зсз685399 0.7 10231846
15:00+14зсз8950100 0.8 10221948
18:00+12з695690 0.1 1021811
21:00+9зюз596780 0.1 1020265
11 мая, вт
вт1100:00+9юз81458100 0.0 1018534
03:00+11юз101463100 0.0 1016909
06:00+10юз111579100 0.5 10161271
09:00+9юз111789100 3.4 10151457
12:00+10юз121882100 2.4 10151544
15:00+10юз91586100 6.1 10161231
18:00+11ююз91477100 3.6 1016987
21:00+11ююз61075100 4.2 1017637
12 мая, ср
ср1200:00+10ююв61081100 0.9 1016394
03:00+10юв5787100 0.9 1016205
06:00+10вюв458892 0.0 1017172
09:00+12вюв44775 0.0 1016449
12:00+15в23605 0.0 1016771
15:00+18в566035 0.0 1015891
18:00+18в46710 0.0 1014237
21:00+14всв47848 0.0 1013111
13 мая, чт
чт1300:00+12в488866 0.0 1013155
03:00+11в3589100 0.0 1012112
06:00+12в348713 0.0 1012103
09:00+17в337598 0.0 1012240
12:00+21в456541 0.0 1012430
15:00+23в566297 0.0 1011518
18:00+22всв487899 0.0 1010224
21:00+18в512900 0.0 1010184
14 мая, пт
пт1400:00+16в47935 0.0 1010102
03:00+15вюв33905 0.0 101032
06:00+16юв33798 0.0 101043
09:00+21в225933 0.0 1011116
12:00+24всв125495 0.0 1011318
15:00+26св235681 0.0 1011532
18:00+26св337229 0.0 101062
21:00+21всв3387100 0.0 100929